Location: Black Forest
(43.4794°N, 75.0081°W)
Time: 21:41:37
(UTC-05:00)

ISS - Visible Passes

Search period start: 14 December 2017 00:00
Search period end: 24 December 2017 00:00
Orbit: 403 x 406 km, 51.6° (Epoch: 15 December)

Date Brightness Start Highest point End Pass type
(mag) Time Alt. Az. Time Alt. Az. Time Alt. Az.
14 Dec -3.9 17:24:02 10° NW 17:27:20 70° NNE 17:30:36 10° ESE visible
14 Dec -0.9 19:01:23 10° W 19:03:20 16° SW 19:03:20 16° SW visible
15 Dec -1.8 18:08:32 10° WNW 18:11:25 28° SW 18:14:17 10° SSE visible
16 Dec -2.9 17:16:04 10° WNW 17:19:17 52° SW 17:22:29 10° SE visible
17 Dec -0.5 18:01:35 10° WSW 18:03:06 13° SW 18:04:38 10° SSW visible
18 Dec -1.0 17:08:23 10° W 17:11:03 23° SW 17:13:43 10° S visible
20 Dec 0.3 17:02:18 10° SW 17:02:38 10° SW 17:02:56 10° SW visible
